Time,TemperatureF,DewpointF,PressureIn,WindDirection,WindDirectionDegrees,WindSpeedMPH,WindSpeedGustMPH,Humidity,HourlyPrecipIn,Conditions,Clouds,dailyrainin,SoftwareType,DateUTC
2013-03-26 00:10:00,40.0,27.0,30.39,NW,308,0.0,0.0,59,0.00,,,0.00,weatherlink.com 1.10,2013-03-26 05:10:00,
2013-03-26 00:25:00,39.6,28.0,30.40,NW,307,0.0,1.0,63,0.00,,,0.00,weatherlink.com 1.10,2013-03-26 05:25:00,
2013-03-26 00:40:00,39.2,28.0,30.40,NW,307,0.0,1.0,65,0.00,,,0.00,weatherlink.com 1.10,2013-03-26 05:40:00,
2013-03-26 00:55:00,39.0,28.0,30.40,NW,308,0.0,2.0,66,0.00,,,0.00,weatherlink.com 1.10,2013-03-26 05:55:00,
2013-03-26 01:10:00,38.9,28.0,30.40,NW,307,0.0,3.0,64,0.00,,,0.00,weatherlink.com 1.10,2013-03-26 06:10:00,
2013-03-26 01:25:00,39.5,27.0,30.40,NW,318,1.0,4.0,61,0.00,,,0.00,weatherlink.com 1.10,2013-03-26 06:25:00,
2013-03-26 01:40:00,40.1,26.0,30.40,NNW,337,1.0,5.0,57,0.00,,,0.00,weatherlink.com 1.10,2013-03-26 06:40:00,
2013-03-26 01:55:00,40.0,27.0,30.40,NNW,337,1.0,3.0,59,0.00,,,0.00,weatherlink.com 1.10,2013-03-26 06:55:00,
2013-03-26 02:10:00,39.4,26.0,30.40,NNW,336,1.0,2.0,58,0.00,,,0.00,weatherlink.com 1.10,2013-03-26 07:10:00,
2013-03-26 02:25:00,38.7,25.0,30.40,NNW,337,0.0,2.0,59,0.00,,,0.00,weatherlink.com 1.10,2013-03-26 07:25:00,
2013-03-26 02:40:00,38.2,26.0,30.40,NNW,337,0.0,1.0,61,0.00,,,0.00,weatherlink.com 1.10,2013-03-26 07:40:00,
2013-03-26 02:55:00,37.5,25.0,30.40,NNW,336,0.0,0.0,60,0.00,,,0.00,weatherlink.com 1.10,2013-03-26 07:55:00,
2013-03-26 03:10:00,36.9,23.0,30.40,NNW,337,0.0,0.0,57,0.00,,,0.00,weatherlink.com 1.10,2013-03-26 08:10:00,
2013-03-26 03:25:00,36.3,23.0,30.40,NNW,337,0.0,0.0,59,0.00,,,0.00,weatherlink.com 1.10,2013-03-26 08:25:00,
2013-03-26 03:40:00,35.5,23.0,30.40,NNW,337,0.0,0.0,60,0.00,,,0.00,weatherlink.com 1.10,2013-03-26 08:40:00,
2013-03-26 03:55:00,34.8,23.0,30.41,NNW,337,0.0,0.0,62,0.00,,,0.00,weatherlink.com 1.10,2013-03-26 08:55:00,
2013-03-26 04:10:00,34.2,24.0,30.41,NNW,337,0.0,0.0,66,0.00,,,0.00,weatherlink.com 1.10,2013-03-26 09:10:00,
2013-03-26 04:26:00,33.7,23.0,30.40,NNW,337,0.0,0.0,66,0.00,,,0.00,weatherlink.com 1.10,2013-03-26 09:26:00,
2013-03-26 04:41:00,33.3,25.0,30.40,NNW,337,0.0,0.0,71,0.00,,,0.00,weatherlink.com 1.10,2013-03-26 09:41:00,
2013-03-26 04:56:00,32.8,25.0,30.40,NNW,337,0.0,0.0,72,0.00,,,0.00,weatherlink.com 1.10,2013-03-26 09:56:00,
2013-03-26 05:11:00,32.0,25.0,30.40,NNW,337,0.0,0.0,75,0.00,,,0.00,weatherlink.com 1.10,2013-03-26 10:11:00,
2013-03-26 05:26:00,31.5,24.0,30.40,NNW,336,0.0,0.0,75,0.00,,,0.00,weatherlink.com 1.10,2013-03-26 10:26:00,
2013-03-26 05:56:00,31.1,25.0,30.41,NNW,337,0.0,0.0,77,0.00,,,0.00,weatherlink.com 1.10,2013-03-26 10:56:00,
2013-03-26 06:41:00,29.4,24.0,30.43,NNW,337,0.0,0.0,81,0.00,,,0.00,weatherlink.com 1.10,2013-03-26 11:41:00,
2013-03-26 06:56:00,29.6,24.0,30.44,NNW,337,0.0,0.0,81,0.00,,,0.00,weatherlink.com 1.10,2013-03-26 11:56:00,
2013-03-26 07:11:00,29.8,25.0,30.44,NNW,337,0.0,0.0,82,0.00,,,0.00,weatherlink.com 1.10,2013-03-26 12:11:00,
2013-03-26 07:26:00,29.5,25.0,30.45,NNW,337,0.0,0.0,82,0.00,,,0.00,weatherlink.com 1.10,2013-03-26 12:26:00,
2013-03-26 07:41:00,29.4,25.0,30.46,NNW,337,0.0,0.0,83,0.00,,,0.00,weatherlink.com 1.10,2013-03-26 12:41:00,
2013-03-26 07:56:00,29.7,25.0,30.46,NNW,337,0.0,1.0,83,0.00,,,0.00,weatherlink.com 1.10,2013-03-26 12:56:00,
2013-03-26 08:11:00,30.2,26.0,30.47,NNW,337,0.0,0.0,84,0.00,,,0.00,weatherlink.com 1.10,2013-03-26 13:11:00,
2013-03-26 08:26:00,30.8,27.0,30.47,NNW,336,0.0,0.0,84,0.00,,,0.00,weatherlink.com 1.10,2013-03-26 13:26:00,
2013-03-26 08:56:00,33.6,28.0,30.49,NNW,337,0.0,1.0,80,0.00,,,0.00,weatherlink.com 1.10,2013-03-26 13:56:00,
2013-03-26 09:11:00,37.3,30.0,30.49,NNW,336,0.0,2.0,75,0.00,,,0.00,weatherlink.com 1.10,2013-03-26 14:11:00,
2013-03-26 09:26:00,41.7,26.0,30.49,NNW,331,0.0,5.0,55,0.00,,,0.00,weatherlink.com 1.10,2013-03-26 14:26:00,
2013-03-26 09:41:00,43.7,26.0,30.50,East,85,3.0,5.0,50,0.00,,,0.00,weatherlink.com 1.10,2013-03-26 14:41:00,
2013-03-26 09:56:00,45.0,26.0,30.50,NNW,345,3.0,5.0,48,0.00,,,0.00,weatherlink.com 1.10,2013-03-26 14:56:00,
2013-03-26 10:11:00,46.1,26.0,30.50,NW,321,0.0,3.0,45,0.00,,,0.00,weatherlink.com 1.10,2013-03-26 15:11:00,
2013-03-26 10:26:00,46.9,25.0,30.50,North,360,0.0,5.0,42,0.00,,,0.00,weatherlink.com 1.10,2013-03-26 15:26:00,
2013-03-26 10:42:00,47.5,24.0,30.50,NNW,327,3.0,5.0,40,0.00,,,0.00,weatherlink.com 1.10,2013-03-26 15:42:00,
2013-03-26 10:57:00,48.1,24.0,30.49,NW,313,1.0,5.0,39,0.00,,,0.00,weatherlink.com 1.10,2013-03-26 15:57:00,
2013-03-26 11:12:00,48.1,23.0,30.49,ENE,62,0.0,5.0,37,0.00,,,0.00,weatherlink.com 1.10,2013-03-26 16:12:00,
2013-03-26 11:27:00,49.0,22.0,30.48,NW,319,0.0,6.0,35,0.00,,,0.00,weatherlink.com 1.10,2013-03-26 16:27:00,
2013-03-26 11:42:00,50.3,23.0,30.48,NNW,342,4.0,8.0,35,0.00,,,0.00,weatherlink.com 1.10,2013-03-26 16:42:00,
2013-03-26 11:57:00,51.0,24.0,30.48,NNW,348,2.0,6.0,35,0.00,,,0.00,weatherlink.com 1.10,2013-03-26 16:57:00,
2013-03-26 12:12:00,51.8,23.0,30.47,NW,321,2.0,7.0,33,0.00,,,0.00,weatherlink.com 1.10,2013-03-26 17:12:00,
2013-03-26 12:27:00,52.3,24.0,30.46,NW,315,0.0,6.0,33,0.00,,,0.00,weatherlink.com 1.10,2013-03-26 17:27:00,
2013-03-26 12:42:00,54.2,25.0,30.46,North,355,2.0,6.0,32,0.00,,,0.00,weatherlink.com 1.10,2013-03-26 17:42:00,
2013-03-26 12:57:00,54.2,22.0,30.45,SW,227,1.0,8.0,29,0.00,,,0.00,weatherlink.com 1.10,2013-03-26 17:57:00,
2013-03-26 13:12:00,55.6,23.0,30.44,North,360,6.0,9.0,28,0.00,,,0.00,weatherlink.com 1.10,2013-03-26 18:12:00,
2013-03-26 13:27:00,55.3,24.0,30.43,NNW,343,2.0,7.0,30,0.00,,,0.00,weatherlink.com 1.10,2013-03-26 18:27:00,
2013-03-26 13:42:00,54.8,21.0,30.43,NNW,329,1.0,8.0,27,0.00,,,0.00,weatherlink.com 1.10,2013-03-26 18:42:00,
2013-03-26 13:57:00,55.8,23.0,30.42,NW,319,0.0,7.0,28,0.00,,,0.00,weatherlink.com 1.10,2013-03-26 18:57:00,
2013-03-26 14:12:00,56.4,22.0,30.41,WNW,288,2.0,6.0,26,0.00,,,0.00,weatherlink.com 1.10,2013-03-26 19:12:00,
2013-03-26 14:27:00,57.7,21.0,30.41,NW,317,5.0,7.0,24,0.00,,,0.00,weatherlink.com 1.10,2013-03-26 19:27:00,
2013-03-26 14:42:00,57.3,25.0,30.40,NW,323,5.0,10.0,29,0.00,,,0.00,weatherlink.com 1.10,2013-03-26 19:42:00,
2013-03-26 14:57:00,58.1,22.0,30.39,NW,322,2.0,6.0,25,0.00,,,0.00,weatherlink.com 1.10,2013-03-26 19:57:00,
2013-03-26 15:12:00,57.5,22.0,30.39,NW,322,3.0,7.0,25,0.00,,,0.00,weatherlink.com 1.10,2013-03-26 20:12:00,
2013-03-26 15:27:00,58.9,23.0,30.38,NNW,338,1.0,5.0,25,0.00,,,0.00,weatherlink.com 1.10,2013-03-26 20:27:00,
2013-03-26 15:42:00,58.7,20.0,30.37,NW,315,0.0,7.0,22,0.00,,,0.00,weatherlink.com 1.10,2013-03-26 20:42:00,
2013-03-26 15:57:00,58.0,18.0,30.37,NW,304,2.0,6.0,21,0.00,,,0.00,weatherlink.com 1.10,2013-03-26 20:57:00,
2013-03-26 16:12:00,59.1,21.0,30.36,West,279,3.0,6.0,23,0.00,,,0.00,weatherlink.com 1.10,2013-03-26 21:12:00,
2013-03-26 16:27:00,59.3,21.0,30.36,SSW,211,6.0,7.0,23,0.00,,,0.00,weatherlink.com 1.10,2013-03-26 21:27:00,
2013-03-26 16:42:00,58.6,21.0,30.36,WSW,242,2.0,4.0,23,0.00,,,0.00,weatherlink.com 1.10,2013-03-26 21:42:00,
2013-03-26 16:57:00,58.0,19.0,30.36,NNW,330,0.0,6.0,22,0.00,,,0.00,weatherlink.com 1.10,2013-03-26 21:57:00,
2013-03-26 17:12:00,57.1,19.0,30.35,NW,325,0.0,4.0,23,0.00,,,0.00,weatherlink.com 1.10,2013-03-26 22:12:00,
2013-03-26 17:27:00,57.0,20.0,30.34,NNW,335,2.0,6.0,24,0.00,,,0.00,weatherlink.com 1.10,2013-03-26 22:27:00,
2013-03-26 17:42:00,57.0,21.0,30.34,North,355,2.0,4.0,25,0.00,,,0.00,weatherlink.com 1.10,2013-03-26 22:42:00,
2013-03-26 17:57:00,56.7,20.0,30.34,NW,313,2.0,3.0,24,0.00,,,0.00,weatherlink.com 1.10,2013-03-26 22:57:00,
2013-03-26 18:12:00,56.3,21.0,30.34,NNW,329,0.0,4.0,25,0.00,,,0.00,weatherlink.com 1.10,2013-03-26 23:12:00,
2013-03-26 18:27:00,56.2,22.0,30.34,NNW,329,0.0,1.0,26,0.00,,,0.00,weatherlink.com 1.10,2013-03-26 23:27:00,
2013-03-26 18:42:00,55.6,24.0,30.34,North,5,0.0,2.0,29,0.00,,,0.00,weatherlink.com 1.10,2013-03-26 23:42:00,
2013-03-26 18:57:00,54.9,25.0,30.34,North,5,0.0,0.0,32,0.00,,,0.00,weatherlink.com 1.10,2013-03-26 23:57:00,
2013-03-26 19:12:00,53.9,23.0,30.34,North,5,0.0,0.0,30,0.00,,,0.00,weatherlink.com 1.10,2013-03-27 00:12:00,
2013-03-26 19:27:00,52.8,24.0,30.34,North,5,0.0,0.0,33,0.00,,,0.00,weatherlink.com 1.10,2013-03-27 00:27:00,
2013-03-26 19:42:00,51.4,25.0,30.34,North,5,0.0,0.0,36,0.00,,,0.00,weatherlink.com 1.10,2013-03-27 00:42:00,
2013-03-26 19:57:00,50.0,24.0,30.35,North,5,0.0,0.0,36,0.00,,,0.00,weatherlink.com 1.10,2013-03-27 00:57:00,
2013-03-26 20:12:00,48.8,25.0,30.35,North,5,0.0,0.0,39,0.00,,,0.00,weatherlink.com 1.10,2013-03-27 01:12:00,
2013-03-26 20:27:00,47.5,25.0,30.35,North,5,0.0,0.0,42,0.00,,,0.00,weatherlink.com 1.10,2013-03-27 01:27:00,
2013-03-26 20:42:00,46.2,30.0,30.35,North,5,0.0,0.0,53,0.00,,,0.00,weatherlink.com 1.10,2013-03-27 01:42:00,
2013-03-26 20:57:00,45.1,30.0,30.35,North,5,0.0,0.0,57,0.00,,,0.00,weatherlink.com 1.10,2013-03-27 01:57:00,
2013-03-26 21:12:00,43.9,30.0,30.35,North,5,0.0,0.0,59,0.00,,,0.00,weatherlink.com 1.10,2013-03-27 02:12:00,
2013-03-26 21:27:00,43.0,30.0,30.36,North,5,0.0,0.0,60,0.00,,,0.00,weatherlink.com 1.10,2013-03-27 02:27:00,
2013-03-26 21:42:00,42.3,30.0,30.36,North,5,0.0,0.0,62,0.00,,,0.00,weatherlink.com 1.10,2013-03-27 02:42:00,
2013-03-26 21:57:00,41.6,31.0,30.36,North,5,0.0,0.0,66,0.00,,,0.00,weatherlink.com 1.10,2013-03-27 02:57:00,
2013-03-26 22:12:00,41.0,31.0,30.37,North,5,0.0,0.0,68,0.00,,,0.00,weatherlink.com 1.10,2013-03-27 03:12:00,
2013-03-26 22:27:00,40.2,31.0,30.37,North,5,0.0,0.0,69,0.00,,,0.00,weatherlink.com 1.10,2013-03-27 03:27:00,
2013-03-26 22:42:00,39.6,31.0,30.37,North,5,0.0,0.0,71,0.00,,,0.00,weatherlink.com 1.10,2013-03-27 03:42:00,
2013-03-26 22:57:00,39.2,30.0,30.37,North,5,0.0,0.0,70,0.00,,,0.00,weatherlink.com 1.10,2013-03-27 03:57:00,
2013-03-26 23:12:00,38.8,30.0,30.38,North,5,0.0,0.0,72,0.00,,,0.00,weatherlink.com 1.10,2013-03-27 04:12:00,
2013-03-26 23:27:00,38.4,31.0,30.37,North,5,0.0,0.0,74,0.00,,,0.00,weatherlink.com 1.10,2013-03-27 04:27:00,
2013-03-26 23:42:00,38.0,30.0,30.38,North,5,0.0,0.0,74,0.00,,,0.00,weatherlink.com 1.10,2013-03-27 04:42:00,
2013-03-26 23:57:00,37.5,31.0,30.37,North,5,0.0,0.0,76,0.00,,,0.00,weatherlink.com 1.10,2013-03-27 04:57:00,